Regional Weather Roundup
Issued by NWS

Home | Current Version | Previous Version | Graphics & Text | Print | Product List | Glossary On
Versions: 1 2 3 4 5 6 7 8 9 10 11 12 13 14 15 16 17 18 19 20 21 22 23 24 25 26 27 28 29 30 31 32 33 34 35 36 37 38 39 40 41 42 43 44 45 46 47 48 49 50
000
ASUS43 KIND 011359
RWRIN

WEATHER ROUNDUP FOR INDIANA
NATIONAL WEATHER SERVICE INDIANAPOLIS IN
1000 AM EDT SAT AUG 01 2015

NOTE: "FAIR" INDICATES FEW OR NO CLOUDS BELOW 12,000 FEET WITH NO
SIGNIFICANT WEATHER AND/OR OBSTRUCTIONS TO VISIBILITY.

* - STATION DOES NOT REPORT WEATHER SUCH AS PRECIPITATION OR FOG.

+ - STATION NOT QUALITY CONTROLLED BY THE NATIONAL WEATHER SERVICE.
    USE DATA WITH CAUTION...ESPECIALLY DEWPOINT AND RELATIVE
    HUMIDITY OBSERVATIONS.

INZ001>003-010>013-019-020-011500-
NORTHWEST INDIANA

CITY           SKY/WX    TMP DP  RH WIND       PRES   REMARKS
GARY /AIRPORT/ SUNNY     75  55  50 W8        30.00S
RENSSELAER +   SUNNY     72  63  73 W3        30.02F

$$

LMZ046-743>745-011500-
SOUTHERN LAKE MICHIGAN

STATION/POSITION TIME  TEMP    WIND        PRES    WAVE
                       AIR SEA DIR/SP/G            HT
                 (UTC) (F)     (DEG/KT/KT) (MB)    (FT)
BURNS HARBOR     1300   71     250/  6/  7 1016.3S
MICHIGAN CITY    1300   71     210/ 13/ 14   N/A
5NW MICH CITY    1300   73 73  280/ 10/ 12   N/A     3

$$

INZ004-005-014>016-021>024-011500-
NORTH CENTRAL INDIANA

CITY           SKY/WX    TMP DP  RH WIND       PRES   REMARKS
ELKHART        SUNNY     75  59  57 W9        30.00R
GOSHEN         SUNNY     74  63  68 W9        29.99S
SOUTH BEND     SUNNY     75  61  61 NW9       30.00S

$$

INZ006>009-017-018-025>027-011500-
NORTHEAST INDIANA

CITY           SKY/WX    TMP DP  RH WIND       PRES   REMARKS
ANGOLA *+      SUNNY     73  59  60 NW8       29.99S
FORT WAYNE     SUNNY     73  59  61 NW6       30.01R

$$

INZ028-029-035-036-043>045-051>053-011500-
WEST CENTRAL INDIANA

CITY           SKY/WX    TMP DP  RH WIND       PRES   REMARKS
CRAWFORDSVL +  SUNNY     70  57  62 W3          N/A
GREENCASTLE +  SUNNY     72  52  49 N6        30.06R
LAFAYETTE      SUNNY     72  61  68 W7        30.02S
TERRE HAUTE    SUNNY     74  60  61 N3        30.05R

$$

INZ030>032-037>040-046>048-054>057-064-065-011500-
CENTRAL INDIANA

CITY           SKY/WX    TMP DP  RH WIND       PRES   REMARKS
ANDERSON       SUNNY     72  54  53 NW7       30.04R
GREENWOOD *+   SUNNY     75  54  46 CALM      30.04R
INDIANAPOLIS   MOSUNNY   75  55  49 N9        30.02R
-EAGLE CREEK   SUNNY     73  59  61 NW7       30.03R
KOKOMO *+      SUNNY     72  59  64 NW7       30.03R
MT COMFORT *+  SUNNY     75  55  50 NW5       30.03S
SHELBYVILLE    SUNNY     75  61  61 N6        30.02R

$$

INZ033-034-041-042-049-050-058-059-011500-
EAST CENTRAL INDIANA

CITY           SKY/WX    TMP DP  RH WIND       PRES   REMARKS
MUNCIE         SUNNY     71  60  68 NW6       30.02S

$$

INZ060-061-067>069-081>083-085>088-011500-
SOUTHWEST INDIANA

CITY           SKY/WX    TMP DP  RH WIND       PRES   REMARKS
EVANSVILLE     SUNNY     81  61  50 N8        30.06R
HUNTINGBURG *+ SUNNY     77  64  65 NW6       30.05R

$$

INZ062-063-066-070>080-084-089>092-011500-
SOUTH CENTRAL AND SOUTHEAST INDIANA

CITY           SKY/WX    TMP DP  RH WIND       PRES   REMARKS
BLOOMINGTON    SUNNY     75  59  57 N6        30.05R
MADISON *+     SUNNY     73  61  64 CALM      30.05S
SEYMOUR +      SUNNY     75  61  60 NW5       30.03R

$$




USA.gov is the U.S. government's official web portal to all federal, state and local government web resources and services.